星链-3311 (STARLINK-3311 )

导读 | 星芒AI

STARLINK-3311 是 SpaceX Starlink 卫星互联网项目中的一颗低轨通信卫星。该卫星属于 Starlink 任务的第 11 批部署,旨在为全球用户提供高速互联网服务。它运行在约 550 公里的近地轨道,采用先进的通信技术,支持宽带数据传输。Starlink 系统由数千颗卫星组成,致力于改善偏远地区的网络接入,减少数字鸿沟。STARLINK-3311 的发射和运行体现了 SpaceX 在商业航天和全球通信基础设施建设方面的持续进展。

基本信息
目录编号:
50849
目录名称:
STARLINK-3311
国际标识:
2022-001AY
轨道中心:
EARTH
卫星名称:
星链-3311
卫星全名:
星链-3311 (STARLINK-3311 )
卫星状态:
在轨 (已飞行1398 天)
发射日期:
2022-01-06 UTC
国别 :
美国 (US)
星等 :
--
轨道信息
数据来源 国际轨道数据 AOE轨道数据
星历时间 2025-11-04T06:40:51+0800
15小时前
查看轨道信息
2025-11-03T10:00:00+0800
1天前
查看轨道信息
半长轴 6917.902km 6917.864km
偏心率 0.0001439 0.0001293
轨道倾角 53.219° 53.217°
近地点辐角 88.069° 61.680°
升交点赤经 23.612° 27.481°
平近点角 272.046° 295.301°
近地点 538.771km 538.834km
远地点 540.763km 540.624km
周期 95.438分钟 95.437分钟
每日圈数 15.088331 15.088456
详细信息
固有亮度:
5
最大亮度:
2.5
卫星平台:
Starlink v1.5
覆盖范围:
全球
运营商:
太空探索技术公司
运营商所在国:
美国
制造商(研发单位):
太空探索技术公司
制造商所在国:
美国
使用方式:
暂无
卫星简介
星链(Starlink)计划是由太空探索技术公司(SpaceX)提出的一个巨型低轨卫星互联网星座项目,计划在2019年至2024年间在太空搭建由约1.2万颗卫星组成的“星链”网络,其中1584颗将部署在地球上空550千米处的近地轨道,并从2020年开始工作。该卫星仍在工作。
2D轨道图
3D轨道图
轨道高度分析图
轨道倾角分析图
轨道综合分析图
查看轨道综合分析图